Orbital Elements at Epoch 2459200.5 (2020-Dec-17.0) TDB
Reference: JPL 15 (heliocentric ecliptic J2000)
Element | Value | Uncertainty (1-sigma) | Units |
e | .1768884697059537 | 4.0947e-08 | |
a | 3.196226786666439 | 2.5563e-08 | au |
q | 2.630851121539835 | 1.3001e-07 | au |
i | 10.35765896382342 | 6.3984e-06 | deg |
node | 336.2183653529524 | 2.6342e-05 | deg |
peri | 94.22822810925025 | 3.2348e-05 | deg |
M | 213.1000500789195 | 1.8779e-05 | deg |
tp | 2460052.175107810628 (2023-Apr-17.67510781) | 0.00011381 | TDB |
period | 2087.15550261619 5.71 | 2.5039e-05 6.855e-08 | d yr |
n | .1724835545548715 | 2.0693e-09 | deg/d |
Q | 3.761602451793043 | 3.0085e-08 | au |
|
| | Orbit Determination Parameters
Additional Information
|